Simultaneous Nadir Overpasses (SNOs) Predictions

Prediction of SNOs between GOES-16 and NPP Satellite Orbit:

Table of predicted SNOs for the next 14.0 days since TLE Epoch: 9/11/2021
Index Date Time (GOES-16) GOES-16 Lat,Lon NPP Lat,Lon Distance(km) Time Diff (sec)
1 09/11/2021 18:33:39 0.13, -75.19 -0.39, -77.38 250.68 80
2 09/12/2021 18:17:36 0.13, -75.18 0.67, -72.86 264.49 80
3 09/14/2021 06:39:24 -0.13, -75.17 0.51, -78.13 337.36 80
4 09/15/2021 06:18:00 -0.14, -75.16 -0.49, -73.60 177.80 80
5 09/16/2021 18:39:57 0.14, -75.14 -0.68, -78.91 428.66 80
6 09/17/2021 18:23:53 0.15, -75.13 0.33, -74.37 87.14 80
7 09/20/2021 06:24:16 -0.15, -75.14 -0.16, -75.11 3.32 80
8 09/22/2021 18:27:29 0.15, -75.14 -0.00, -75.89 84.40 80
9 09/23/2021 18:11:25 0.15, -75.15 1.00, -71.35 432.67 80
